Terug naar catalogus

STARLINK-37601

ActiefCommunicatieVLEO
NORAD 69450·PAYLOAD·🇺🇸 United States

Gelanceerd Jun 8, 2026 vanaf Cape Canaveral Space Force Station

Loading…

Volgende Passages (komende 24 uur)

TLE

VersSource: CelesTrak SupGP

Epoch: Sep 15, 2026, 03:11 UTC

1 69450C 26127H   26258.13312500 -.00062749  00000+0 -18542-2 0  2589
2 69450  53.1569 190.7422 0001279  83.1533 111.5244 15.34416966    16

Volg STARLINK-37601 in realtime met AllMySat

Download on the App Store